Flag for Israel Weather past 2 weeks in Rehovot, Israel

Now
79 °F

Clear.


Feels Like: 81 °F
Forecast: 73 / 90 °F
Wind: 5 mph from South

Location: Ben Gurion International Airport

Current Time: Aug 28, 2014 at 12:47:26 AM

Latest Report: Aug 28, 2014 at 12:20 AM


Visibility: 10 mi

Pressure: 29.74 "Hg

Humidity: 74%

Dew point: 70 °F

Location of RehovotLocation

Historic Weather in Rehovot — Graph

°F

Rehovot temperature yesterday

Maximum temperature yesterday: 91 °F (at 1:20 PM)
Minimum temperature yesterday: 73 °F (at 6:20 AM)
Average temperature yesterday: 83 °F

Past Weeks' High & Low Weather Summary

 TemperatureHumidityPressure
High93 °F (Aug 14, 11:20 AM)89% (Aug 14, 5:50 AM)29.95 "Hg (Aug 14, 5:50 AM)
Low73 °F (Aug 26, 5:20 AM)46% (Aug 20, 11:20 AM)29.62 "Hg (Aug 17, 1:20 PM)
Average83 °F69%29.77 "Hg
* Reported Aug 12 11:20 PM — Aug 27 11:20 PM, Rehovot, Weather by CustomWeather, © 2014

Note: Actual official high and low records may vary slightly from our data, if they occured in-between our weather recording intervals... More about our weather records

Advertising

Rehovot weather history for previous 24 hours

 ConditionsComfort  
Time TempWeatherWind HumidityBarometerVisibility
11:20 PM
Aug 27
81 °FClear.2 mph74%29.74 "Hg10 mi
10:50 PM81 °FPassing clouds.2 mph74%29.74 "HgN/A
10:20 PM81 °FPassing clouds.2 mph74%29.74 "HgN/A
9:50 PM81 °FClear.2 mph74%29.74 "Hg10 mi
9:20 PM82 °FClear.3 mph70%29.74 "Hg10 mi
8:50 PM82 °FClear.3 mph70%29.74 "Hg10 mi
8:20 PM82 °FPassing clouds.5 mph70%29.74 "HgN/A
7:20 PM82 °FPassing clouds.5 mph70%29.74 "HgN/A
6:50 PM84 °FPassing clouds.8 mph66%29.74 "HgN/A
5:50 PM86 °FSunny.10 mph62%29.74 "Hg10 mi
5:20 PM88 °FSunny.13 mph59%29.74 "Hg10 mi
4:50 PM90 °FSunny.12 mph52%29.74 "Hg10 mi
4:20 PM90 °FSunny.13 mph52%29.74 "Hg10 mi
3:50 PM90 °FSunny.14 mph52%29.74 "Hg10 mi
3:20 PM90 °FSunny.13 mph52%29.74 "Hg10 mi
2:50 PM91 °FPassing clouds.12 mph46%29.74 "HgN/A
2:20 PM91 °FPassing clouds.12 mph49%29.77 "HgN/A
1:20 PM91 °FPassing clouds.10 mph49%29.77 "HgN/A
12:50 PM90 °FPassing clouds.10 mph55%29.77 "HgN/A
12:20 PM90 °FPassing clouds.9 mph55%29.77 "HgN/A
11:50 AM90 °FPassing clouds.9 mph55%29.77 "HgN/A
11:20 AM90 °FPassing clouds.6 mph55%29.77 "HgN/A
10:50 AM90 °FPassing clouds.5 mph55%29.80 "HgN/A
10:20 AM88 °FPassing clouds.2 mph59%29.80 "HgN/A
9:50 AM86 °FScattered clouds.5 mph62%29.80 "HgN/A
9:20 AM86 °FScattered clouds.5 mph62%29.80 "HgN/A
8:50 AM84 °FScattered clouds.5 mph66%29.80 "HgN/A
8:20 AM82 °FPassing clouds.5 mph70%29.80 "HgN/A
7:50 AM81 °FPassing clouds.2 mph70%29.80 "HgN/A
7:20 AM79 °FPassing clouds.3 mph70%29.80 "HgN/A
6:50 AM75 °FPassing clouds.3 mph78%29.80 "HgN/A
6:20 AM73 °FPassing clouds.6 mph83%29.80 "HgN/A
5:50 AM75 °FPassing clouds.5 mph78%29.80 "HgN/A
5:20 AM75 °FPassing clouds.5 mph83%29.77 "HgN/A
4:50 AM75 °FPassing clouds.2 mph78%29.77 "HgN/A
4:20 AM77 °FPassing clouds.5 mph74%29.77 "HgN/A
3:20 AM77 °FPassing clouds.6 mph83%29.77 "HgN/A
2:50 AM77 °FPassing clouds.7 mph83%29.80 "HgN/A
2:20 AM79 °FPassing clouds.5 mph79%29.80 "HgN/A
1:50 AM79 °FPassing clouds.7 mph84%29.80 "HgN/A
1:20 AM79 °FPassing clouds.7 mph84%29.80 "HgN/A
12:20 AM81 °FPassing clouds.6 mph79%29.80 "HgN/A
Weather by CustomWeather, © 2014

See weather overviewHow to use our weather pages